Location: Vlissingen
(51.4500°N, 3.5830°E)
Time: 12:51:43
(UTC+01:00)

N. Korean satellite - Pass Details

Date: 04 December 2021
Orbit: 447 x 491 km, 97.3° (Epoch: 21 January)

Event Time Altitude Azimuth Distance (km) Brightness Sun altitude
Rises 07:21:54 0° 359° (N) 2,477 9.9 -10.5°
Reaches altitude 10° 07:24:29 10° 338° (NNW) 1,592 8.8 -10.1°
Maximum altitude 07:26:40 16° 298° (WNW) 1,254 8.0 -9.8°
Drops below altitude 10° 07:28:49 10° 258° (WSW) 1,579 8.7 -9.5°
Sets 07:31:23 0° 236° (WSW) 2,444 9.8 -9.1°
